| time (UTC) | temp C | wind direction | speed KPH | gust KPH | rain 1hr cm | rain 24hr cm | rain mn cm | humidity % | barometer mb |
| 20260503054945 | 6 | 104 | 6.4 | 8.0 | 0.00 | 0.00 | 0.00 | 85 | 1019.2 |
| 20260503054441 | 6 | 120 | 6.4 | 8.0 | 0.00 | 0.00 | 0.00 | 85 | 1018.8 |
| 20260503053939 | 6 | 95 | 6.4 | 8.0 | 0.00 | 0.00 | 0.00 | 87 | 1019.2 |
| 20260503053437 | 6 | 132 | 6.4 | 8.0 | 0.00 | 0.00 | 0.00 | 87 | 1018.9 |
| 20260503052933 | 6 | 109 | 8.0 | 9.7 | 0.00 | 0.00 | 0.00 | 84 | 1018.9 |
| 20260503052431 | 6 | 129 | 6.4 | 8.0 | 0.00 | 0.00 | 0.00 | 82 | 1019.0 |
| 20260503051927 | 7 | 103 | 6.4 | 8.0 | 0.00 | 0.00 | 0.00 | 85 | 1019.2 |
| 20260503051423 | 7 | 97 | 4.8 | 4.8 | 0.00 | 0.00 | 0.00 | 83 | 1018.7 |
| 20260503050920 | 7 | 93 | 4.8 | 4.8 | 0.00 | 0.00 | 0.00 | 80 | 1019.0 |
| 20260503050416 | 7 | 91 | 4.8 | 4.8 | 0.00 | 0.00 | 0.00 | 82 | 1018.9 |
| 20260503045914 | 7 | 86 | 4.8 | 4.8 | 0.00 | 0.00 | 0.00 | 79 | 1019.2 |
| 20260503045406 | 9 | 106 | 4.8 | 4.8 | 0.00 | 0.00 | 0.00 | 73 | 1018.8 |
| 20260503044903 | 10 | 61 | 4.8 | 4.8 | 0.00 | 0.00 | 0.00 | 71 | 1019.0 |
| 20260503044359 | 10 | 72 | 1.6 | 1.6 | 0.00 | 0.00 | 0.00 | 69 | 1019.0 |
| 20260503043856 | 11 | 79 | 3.2 | 3.2 | 0.00 | 0.00 | 0.00 | 66 | 1018.7 |
| 20260503043353 | 10 | 85 | 1.6 | 1.6 | 0.00 | 0.00 | 0.00 | 64 | 1018.9 |
| 20260503042849 | 11 | 24 | 1.6 | 3.2 | 0.00 | 0.00 | 0.00 | 64 | 1018.8 |
| 20260503042346 | 11 | 27 | 1.6 | 3.2 | 0.00 | 0.00 | 0.00 | 64 | 1018.7 |
| 20260503041842 | 12 | 197 | 4.8 | 4.8 | 0.00 | 0.00 | 0.00 | 57 | 1018.8 |
| 20260503041340 | 13 | 180 | 3.2 | 3.2 | 0.00 | 0.00 | 0.00 | 57 | 1018.6 |
| 20260503040837 | 12 | 141 | 0.0 | 1.6 | 0.00 | 0.00 | 0.00 | 58 | 1018.5 |
| 20260503040335 | 12 | 38 | 3.2 | 3.2 | 0.00 | 0.00 | 0.00 | 66 | 1018.6 |
| 20260503035831 | 12 | 169 | 3.2 | 3.2 | 0.00 | 0.00 | 0.00 | 57 | 1018.7 |
| 20260503035328 | 13 | 164 | 3.2 | 3.2 | 0.00 | 0.00 | 0.00 | 57 | 1018.5 |
| 20260503034825 | 11 | 115 | 0.0 | 0.0 | 0.00 | 0.00 | 0.00 | 62 | 1018.4 |
| 20260503034322 | 12 | 25 | 4.8 | 4.8 | 0.00 | 0.00 | 0.00 | 62 | 1018.4 |
| 20260503033820 | 12 | 143 | 3.2 | 3.2 | 0.00 | 0.00 | 0.00 | 59 | 1018.3 |
| 20260503033317 | 12 | 189 | 1.6 | 3.2 | 0.00 | 0.00 | 0.00 | 62 | 1018.4 |
| 20260503032815 | 12 | 152 | 0.0 | 1.6 | 0.00 | 0.00 | 0.00 | 63 | 1018.0 |
| 20260503032314 | 13 | 152 | 1.6 | 1.6 | 0.00 | 0.00 | 0.00 | 59 | 1018.1 |
| 20260503031810 | 14 | 152 | 3.2 | 3.2 | 0.00 | 0.00 | 0.00 | 55 | 1017.8 |
| 20260503031308 | 13 | 156 | 4.8 | 4.8 | 0.00 | 0.00 | 0.00 | 57 | 1017.5 |
| 20260503030804 | 14 | 155 | 6.4 | 8.0 | 0.00 | 0.00 | 0.00 | 57 | 1017.8 |
| 20260503030301 | 14 | 163 | 4.8 | 4.8 | 0.00 | 0.00 | 0.00 | 56 | 1018.0 |
| 20260503025757 | 15 | 180 | 4.8 | 4.8 | 0.00 | 0.00 | 0.00 | 56 | 1017.8 |
| 20260503025255 | 15 | 175 | 4.8 | 4.8 | 0.00 | 0.00 | 0.00 | 52 | 1017.8 |
| 20260503024752 | 14 | 159 | 4.8 | 8.0 | 0.00 | 0.00 | 0.00 | 55 | 1018.0 |
| 20260503024249 | 15 | 167 | 1.6 | 3.2 | 0.00 | 0.00 | 0.00 | 53 | 1017.7 |
| 20260503023746 | 16 | 157 | 3.2 | 3.2 | 0.00 | 0.00 | 0.00 | 46 | 1017.9 |
| 20260503023242 | 16 | 181 | 3.2 | 3.2 | 0.00 | 0.00 | 0.00 | 48 | 1018.0 |
| 20260503022739 | 16 | 187 | 4.8 | 4.8 | 0.00 | 0.00 | 0.00 | 55 | 1018.1 |
| 20260503022239 | 16 | 33 | 3.2 | 3.2 | 0.00 | 0.00 | 0.00 | 48 | 1018.1 |
| 20260503021736 | 16 | 86 | 3.2 | 4.8 | 0.00 | 0.00 | 0.00 | 53 | 1018.4 |
| 20260503021232 | 18 | 140 | 3.2 | 3.2 | 0.00 | 0.00 | 0.00 | 46 | 1018.3 |
| 20260503020731 | 17 | 346 | 0.0 | 0.0 | 0.00 | 0.00 | 0.00 | 43 | 1018.1 |
| 20260503020228 | 17 | 336 | 3.2 | 3.2 | 0.00 | 0.00 | 0.00 | 43 | 1018.0 |
| 20260503015724 | 18 | 294 | 8.0 | 9.7 | 0.00 | 0.00 | 0.00 | 44 | 1018.1 |
| 20260503015221 | 18 | 299 | 3.2 | 3.2 | 0.00 | 0.00 | 0.00 | 43 | 1018.0 |
| 20260503014717 | 17 | 272 | 6.4 | 8.0 | 0.00 | 0.00 | 0.00 | 44 | 1018.0 |
| 20260503014215 | 17 | 182 | 4.8 | 4.8 | 0.00 | 0.00 | 0.00 | 51 | 1018.1 |
| 20260503013712 | 17 | 266 | 8.0 | 9.7 | 0.00 | 0.00 | 0.00 | 46 | 1017.8 |
| 20260503013210 | 18 | 213 | 1.6 | 3.2 | 0.00 | 0.00 | 0.00 | 52 | 1018.1 |
| 20260503012707 | 18 | 88 | 0.0 | 1.6 | 0.00 | 0.00 | 0.00 | 49 | 1017.9 |
| 20260503012204 | 18 | 336 | 6.4 | 9.7 | 0.00 | 0.00 | 0.00 | 47 | 1018.0 |
| 20260503011700 | 18 | 4 | 4.8 | 4.8 | 0.00 | 0.00 | 0.00 | 46 | 1017.9 |
| 20260503011157 | 18 | 223 | 3.2 | 3.2 | 0.00 | 0.00 | 0.00 | 43 | 1018.0 |
| 20260503010653 | 20 | 295 | 4.8 | 4.8 | 0.00 | 0.00 | 0.00 | 47 | 1017.9 |
| 20260503010151 | 20 | 0 | 8.0 | 8.0 | 0.00 | 0.00 | 0.00 | 39 | 1017.9 |
| 20260503005648 | 20 | 77 | 3.2 | 3.2 | 0.00 | 0.00 | 0.00 | 39 | 1017.7 |
| 20260503005145 | 21 | 89 | 6.4 | 11.3 | 0.00 | 0.00 | 0.00 | 42 | 1017.8 |
| 20260503004641 | 20 | 272 | 4.8 | 8.0 | 0.00 | 0.00 | 0.00 | 40 | 1017.7 |
| 20260503004140 | 20 | 280 | 9.7 | 11.3 | 0.00 | 0.00 | 0.00 | 41 | 1017.5 |
| 20260503003636 | 20 | 246 | 9.7 | 12.9 | 0.00 | 0.00 | 0.00 | 39 | 1017.6 |
| 20260503003133 | 21 | 276 | 12.9 | 14.5 | 0.00 | 0.00 | 0.00 | 40 | 1017.8 |
| 20260503002630 | 21 | 324 | 9.7 | 12.9 | 0.00 | 0.00 | 0.00 | 35 | 1017.5 |
| 20260503002127 | 22 | 291 | 12.9 | 12.9 | 0.00 | 0.00 | 0.00 | 34 | 1017.6 |
| 20260503001623 | 21 | 268 | 4.8 | 4.8 | 0.00 | 0.00 | 0.00 | 37 | 1017.6 |
| 20260503001120 | 21 | 246 | 8.0 | 8.0 | 0.00 | 0.00 | 0.00 | 41 | 1017.1 |
| 20260503000618 | 21 | 222 | 9.7 | 11.3 | 0.00 | 0.00 | 0.00 | 36 | 1017.3 |
| 20260503000115 | 21 | 262 | 4.8 | 4.8 | 0.00 | 0.00 | 0.00 | 40 | 1017.1 |
| 20260502235611 | 21 | 287 | 12.9 | 12.9 | 0.00 | 0.00 | 0.00 | 35 | 1017.5 |
| 20260502235109 | 21 | 222 | 19.3 | 22.5 | 0.00 | 0.00 | 0.00 | 38 | 1017.3 |
| 20260502234605 | 21 | 219 | 9.7 | 11.3 | 0.00 | 0.00 | 0.00 | 37 | 1017.2 |
| 20260502234103 | 21 | 275 | 9.7 | 11.3 | 0.00 | 0.00 | 0.00 | 37 | 1017.5 |
| 20260502233603 | 21 | 278 | 14.5 | 16.1 | 0.00 | 0.00 | 0.00 | 36 | 1017.6 |
| 20260502233100 | 21 | 296 | 12.9 | 14.5 | 0.00 | 0.00 | 0.00 | 40 | 1017.6 |
| 20260502232556 | 21 | 287 | 9.7 | 12.9 | 0.00 | 0.00 | 0.00 | 39 | 1017.6 |
| 20260502232054 | 21 | 292 | 11.3 | 12.9 | 0.00 | 0.00 | 0.00 | 40 | 1017.5 |
| 20260502231550 | 21 | 261 | 11.3 | 12.9 | 0.00 | 0.00 | 0.00 | 40 | 1017.6 |
| 20260502231049 | 21 | 297 | 11.3 | 11.3 | 0.00 | 0.00 | 0.00 | 38 | 1017.5 |
| 20260502230547 | 21 | 281 | 12.9 | 14.5 | 0.00 | 0.00 | 0.00 | 42 | 1017.5 |
| 20260502230045 | 21 | 278 | 12.9 | 14.5 | 0.00 | 0.00 | 0.00 | 38 | 1017.6 |
| 20260502225540 | 21 | 265 | 9.7 | 12.9 | 0.00 | 0.00 | 0.00 | 41 | 1017.6 |
| 20260502225037 | 21 | 234 | 12.9 | 16.1 | 0.00 | 0.00 | 0.00 | 36 | 1017.6 |
| 20260502224533 | 21 | 228 | 4.8 | 8.0 | 0.00 | 0.00 | 0.00 | 33 | 1017.8 |
| 20260502224030 | 21 | 275 | 6.4 | 8.0 | 0.00 | 0.00 | 0.00 | 34 | 1017.8 |
| 20260502223528 | 22 | 1 | 1.6 | 1.6 | 0.00 | 0.00 | 0.00 | 30 | 1017.7 |
| 20260502223027 | 22 | 359 | 3.2 | 3.2 | 0.00 | 0.00 | 0.00 | 31 | 1017.9 |
| 20260502222523 | 22 | 346 | 1.6 | 3.2 | 0.00 | 0.00 | 0.00 | 29 | 1018.0 |
| 20260502222020 | 22 | 210 | 1.6 | 3.2 | 0.00 | 0.00 | 0.00 | 30 | 1017.8 |
| 20260502221515 | 22 | 214 | 4.8 | 4.8 | 0.00 | 0.00 | 0.00 | 32 | 1017.8 |
| 20260502221013 | 22 | 186 | 3.2 | 4.8 | 0.00 | 0.00 | 0.00 | 36 | 1017.7 |
| 20260502220508 | 22 | 285 | 6.4 | 8.0 | 0.00 | 0.00 | 0.00 | 33 | 1017.8 |
| 20260502220005 | 22 | 286 | 3.2 | 3.2 | 0.00 | 0.00 | 0.00 | 33 | 1018.0 |
| 20260502215503 | 22 | 222 | 3.2 | 3.2 | 0.00 | 0.00 | 0.00 | 31 | 1017.9 |
| 20260502214959 | 22 | 296 | 12.9 | 14.5 | 0.00 | 0.00 | 0.00 | 33 | 1018.1 |
| 20260502214456 | 22 | 274 | 6.4 | 8.0 | 0.00 | 0.00 | 0.00 | 35 | 1017.9 |
| 20260502213954 | 22 | 350 | 6.4 | 9.7 | 0.00 | 0.00 | 0.00 | 36 | 1018.0 |
| 20260502213450 | 22 | 10 | 6.4 | 8.0 | 0.00 | 0.00 | 0.00 | 34 | 1018.0 |
| 20260502212949 | 22 | 314 | 1.6 | 3.2 | 0.00 | 0.00 | 0.00 | 32 | 1018.1 |
| 20260502212447 | 22 | 224 | 4.8 | 4.8 | 0.00 | 0.00 | 0.00 | 32 | 1018.3 |
| 20260502211944 | 22 | 257 | 4.8 | 8.0 | 0.00 | 0.00 | 0.00 | 31 | 1018.1 |
| 20260502211439 | 22 | 42 | 4.8 | 8.0 | 0.00 | 0.00 | 0.00 | 35 | 1018.3 |
| 20260502210937 | 22 | 154 | 1.6 | 1.6 | 0.00 | 0.00 | 0.00 | 32 | 1018.3 |
| 20260502210434 | 22 | 260 | 4.8 | 4.8 | 0.00 | 0.00 | 0.00 | 33 | 1018.4 |
| 20260502205931 | 22 | 220 | 1.6 | 1.6 | 0.00 | 0.00 | 0.00 | 31 | 1018.4 |
| 20260502205427 | 21 | 9 | 1.6 | 3.2 | 0.00 | 0.00 | 0.00 | 34 | 1018.5 |
| 20260502204925 | 22 | 324 | 8.0 | 9.7 | 0.00 | 0.00 | 0.00 | 32 | 1018.5 |
| 20260502204421 | 22 | 305 | 6.4 | 9.7 | 0.00 | 0.00 | 0.00 | 32 | 1018.6 |
| 20260502203919 | 22 | 347 | 1.6 | 3.2 | 0.00 | 0.00 | 0.00 | 29 | 1018.5 |
| 20260502203416 | 22 | 38 | 3.2 | 4.8 | 0.00 | 0.00 | 0.00 | 31 | 1018.5 |
| 20260502202912 | 22 | 351 | 8.0 | 11.3 | 0.00 | 0.00 | 0.00 | 31 | 1018.4 |
| 20260502202409 | 23 | 268 | 6.4 | 8.0 | 0.00 | 0.00 | 0.00 | 34 | 1018.6 |
| 20260502201908 | 22 | 81 | 3.2 | 3.2 | 0.00 | 0.00 | 0.00 | 29 | 1018.7 |
| 20260502201403 | 22 | 140 | 1.6 | 3.2 | 0.00 | 0.00 | 0.00 | 30 | 1018.6 |
| 20260502200900 | 22 | 126 | 3.2 | 3.2 | 0.00 | 0.00 | 0.00 | 30 | 1018.5 |
| 20260502200355 | 22 | 146 | 4.8 | 8.0 | 0.00 | 0.00 | 0.00 | 32 | 1018.7 |
| 20260502195854 | 22 | 115 | 4.8 | 4.8 | 0.00 | 0.00 | 0.00 | 32 | 1018.6 |
| 20260502195350 | 22 | 140 | 6.4 | 8.0 | 0.00 | 0.00 | 0.00 | 33 | 1018.6 |
| 20260502194847 | 22 | 69 | 8.0 | 9.7 | 0.00 | 0.00 | 0.00 | 31 | 1018.8 |
| 20260502194344 | 22 | 264 | 6.4 | 8.0 | 0.00 | 0.00 | 0.00 | 40 | 1018.7 |
| 20260502193839 | 21 | 226 | 6.4 | 8.0 | 0.00 | 0.00 | 0.00 | 35 | 1018.7 |
| 20260502193337 | 21 | 302 | 8.0 | 9.7 | 0.00 | 0.00 | 0.00 | 35 | 1019.0 |
| 20260502192832 | 21 | 239 | 4.8 | 4.8 | 0.00 | 0.00 | 0.00 | 38 | 1019.0 |
| 20260502192330 | 21 | 30 | 4.8 | 4.8 | 0.00 | 0.00 | 0.00 | 31 | 1019.0 |
| 20260502191827 | 21 | 30 | 9.7 | 11.3 | 0.00 | 0.00 | 0.00 | 32 | 1019.0 |
| 20260502191325 | 21 | 103 | 1.6 | 1.6 | 0.00 | 0.00 | 0.00 | 30 | 1019.0 |
| 20260502190822 | 21 | 94 | 3.2 | 3.2 | 0.00 | 0.00 | 0.00 | 34 | 1019.2 |
| 20260502190319 | 21 | 79 | 4.8 | 8.0 | 0.00 | 0.00 | 0.00 | 27 | 1019.2 |
| 20260502185814 | 21 | 316 | 8.0 | 9.7 | 0.00 | 0.00 | 0.00 | 33 | 1019.3 |
| 20260502185310 | 20 | 107 | 0.0 | 1.6 | 0.00 | 0.00 | 0.00 | 40 | 1019.5 |
| 20260502184808 | 21 | 297 | 4.8 | 4.8 | 0.00 | 0.00 | 0.00 | 35 | 1019.3 |
| 20260502184303 | 21 | 344 | 1.6 | 1.6 | 0.00 | 0.00 | 0.00 | 35 | 1019.4 |
| 20260502183800 | 20 | 296 | 3.2 | 3.2 | 0.00 | 0.00 | 0.00 | 39 | 1019.3 |
| 20260502183256 | 20 | 329 | 4.8 | 4.8 | 0.00 | 0.00 | 0.00 | 40 | 1019.2 |
| 20260502182751 | 20 | 2 | 4.8 | 4.8 | 0.00 | 0.00 | 0.00 | 38 | 1019.4 |
| 20260502182247 | 19 | 289 | 1.6 | 1.6 | 0.00 | 0.00 | 0.00 | 39 | 1019.5 |
| 20260502181743 | 20 | 251 | 4.8 | 4.8 | 0.00 | 0.00 | 0.00 | 41 | 1019.5 |
| 20260502181243 | 20 | 256 | 1.6 | 1.6 | 0.00 | 0.00 | 0.00 | 40 | 1019.4 |
| 20260502180740 | 19 | 122 | 4.8 | 8.0 | 0.00 | 0.00 | 0.00 | 40 | 1019.6 |
| 20260502180237 | 20 | 294 | 6.4 | 8.0 | 0.00 | 0.00 | 0.00 | 44 | 1019.7 |
| 20260502170202 | 17 | 96 | 1.6 | 3.2 | 0.00 | 0.00 | 0.00 | 48 | 1019.6 |
| 20260502164148 | 15 | 124 | 0.0 | 0.0 | 0.00 | 0.00 | 0.00 | 50 | 1020.2 |
| 20260502163644 | 16 | 250 | 3.2 | 3.2 | 0.00 | 0.00 | 0.00 | 51 | 1019.9 |
| 20260502163141 | 16 | 22 | 1.6 | 1.6 | 0.00 | 0.00 | 0.00 | 46 | 1019.8 |
| 20260502162638 | 16 | 28 | 3.2 | 3.2 | 0.00 | 0.00 | 0.00 | 49 | 1019.9 |
| 20260502162135 | 16 | 35 | 1.6 | 3.2 | 0.00 | 0.00 | 0.00 | 48 | 1020.1 |
| 20260502161632 | 16 | 30 | 3.2 | 3.2 | 0.00 | 0.00 | 0.00 | 48 | 1019.9 |
| 20260502161129 | 16 | 7 | 3.2 | 3.2 | 0.00 | 0.00 | 0.00 | 48 | 1020.2 |
| 20260502160626 | 15 | 6 | 1.6 | 3.2 | 0.00 | 0.00 | 0.00 | 49 | 1020.1 |
| 20260502160125 | 15 | 108 | 1.6 | 1.6 | 0.00 | 0.00 | 0.00 | 50 | 1019.9 |
| 20260502152039 | 13 | 101 | 0.0 | 0.0 | 0.00 | 0.00 | 0.00 | 57 | 1020.2 |
| 20260502151536 | 12 | 100 | 4.8 | 4.8 | 0.00 | 0.00 | 0.00 | 58 | 1020.2 |
| 20260502151034 | 12 | 108 | 4.8 | 4.8 | 0.00 | 0.00 | 0.00 | 59 | 1020.3 |
| 20260502150531 | 12 | 104 | 3.2 | 3.2 | 0.00 | 0.00 | 0.00 | 59 | 1020.2 |
| 20260502130416 | 5 | 225 | 1.6 | 3.2 | 0.00 | 0.00 | 0.00 | 83 | 1019.6 |
| 20260502123358 | 5 | 110 | 3.2 | 3.2 | 0.00 | 0.00 | 0.00 | 80 | 1019.7 |
| 20260502122856 | 4 | 143 | 3.2 | 3.2 | 0.00 | 0.00 | 0.00 | 75 | 1019.6 |
| 20260502122351 | 3 | 108 | 3.2 | 3.2 | 0.00 | 0.00 | 0.00 | 86 | 1019.5 |
| 20260502121850 | 3 | 122 | 1.6 | 3.2 | 0.00 | 0.00 | 0.00 | 85 | 1019.7 |
| 20260502121347 | 3 | 91 | 4.8 | 4.8 | 0.00 | 0.00 | 0.00 | 87 | 1019.5 |
| 20260502120844 | 3 | 129 | 4.8 | 4.8 | 0.00 | 0.00 | 0.00 | 82 | 1019.9 |
| 20260502120340 | 3 | 107 | 4.8 | 4.8 | 0.00 | 0.00 | 0.00 | 88 | 1019.7 |
| 20260502115838 | 3 | 97 | 4.8 | 4.8 | 0.00 | 0.00 | 0.00 | 88 | 1019.7 |
| 20260502115335 | 3 | 95 | 6.4 | 8.0 | 0.00 | 0.00 | 0.00 | 88 | 1019.8 |
| 20260502114831 | 3 | 109 | 6.4 | 8.0 | 0.00 | 0.00 | 0.00 | 86 | 1019.6 |
| 20260502114328 | 6 | 86 | 6.4 | 8.0 | 0.00 | 0.00 | 0.00 | 78 | 1019.9 |
| 20260502113825 | 6 | 107 | 3.2 | 3.2 | 0.00 | 0.00 | 0.00 | 73 | 1019.9 |
| 20260502113323 | 5 | 153 | 3.2 | 3.2 | 0.00 | 0.00 | 0.00 | 73 | 1019.9 |
| 20260502112821 | 5 | 131 | 4.8 | 4.8 | 0.00 | 0.00 | 0.00 | 74 | 1019.8 |
| 20260502112318 | 5 | 91 | 1.6 | 1.6 | 0.00 | 0.00 | 0.00 | 72 | 1019.8 |
| 20260502111815 | 5 | 163 | 1.6 | 1.6 | 0.00 | 0.00 | 0.00 | 75 | 1019.9 |
| 20260502111313 | 6 | 164 | 1.6 | 3.2 | 0.00 | 0.00 | 0.00 | 64 | 1019.9 |
| 20260502110810 | 6 | 115 | 3.2 | 3.2 | 0.00 | 0.00 | 0.00 | 73 | 1019.8 |
| 20260502110308 | 5 | 137 | 1.6 | 1.6 | 0.00 | 0.00 | 0.00 | 67 | 1019.9 |
| 20260502105806 | 3 | 124 | 3.2 | 3.2 | 0.00 | 0.00 | 0.00 | 81 | 1020.3 |
| 20260502105302 | 3 | 87 | 3.2 | 3.2 | 0.00 | 0.00 | 0.00 | 86 | 1020.2 |
| 20260502104800 | 4 | 132 | 1.6 | 1.6 | 0.00 | 0.00 | 0.00 | 85 | 1020.1 |
| 20260502104257 | 5 | 95 | 4.8 | 4.8 | 0.00 | 0.00 | 0.00 | 83 | 1020.1 |
| 20260502103754 | 5 | 93 | 1.6 | 1.6 | 0.00 | 0.00 | 0.00 | 80 | 1019.9 |
| 20260502103251 | 3 | 147 | 1.6 | 1.6 | 0.00 | 0.00 | 0.00 | 84 | 1020.1 |
| 20260502102748 | 4 | 97 | 4.8 | 4.8 | 0.00 | 0.00 | 0.00 | 83 | 1020.2 |
| 20260502102245 | 5 | 78 | 3.2 | 3.2 | 0.00 | 0.00 | 0.00 | 78 | 1020.1 |
| 20260502101743 | 5 | 102 | 6.4 | 8.0 | 0.00 | 0.00 | 0.00 | 74 | 1019.9 |
| 20260502101241 | 5 | 153 | 1.6 | 3.2 | 0.00 | 0.00 | 0.00 | 75 | 1019.9 |
| 20260502100739 | 3 | 154 | 0.0 | 1.6 | 0.00 | 0.00 | 0.00 | 82 | 1020.1 |
| 20260502100237 | 3 | 148 | 0.0 | 1.6 | 0.00 | 0.00 | 0.00 | 82 | 1019.8 |
| 20260502091211 | 4 | 156 | 1.6 | 1.6 | 0.00 | 0.00 | 0.00 | 82 | 1020.1 |
| 20260502090709 | 5 | 219 | 3.2 | 3.2 | 0.00 | 0.00 | 0.00 | 79 | 1020.1 |
| 20260502090205 | 4 | 86 | 0.0 | 1.6 | 0.00 | 0.00 | 0.00 | 76 | 1020.1 |
| 20260502071107 | 8 | 143 | 0.0 | 1.6 | 0.00 | 0.00 | 0.00 | 62 | 1020.2 |
| 20260502070605 | 8 | 75 | 0.0 | 1.6 | 0.00 | 0.00 | 0.00 | 61 | 1020.1 |